,,,PA_Meas_PMT16A,,PR_Meas_QMR101_102,,RH_Meas_QMH101,,SR_Meas_QMS101,,TA_Meas_QMH101,,GenWind,,GenWind,
date,time,status,PA,status,PR,status,RH,status,SR,status,TA,status,DirAvg,status,SpdAvg,
2011-11-17, 00:00:05,VALID,999.818,VALID,0,VALID,93.6154,VALID,0,VALID,23.3287,VALID,80,VALID,0,
2011-11-17, 00:01:05,VALID,999.796,VALID,0,VALID,93.6231,VALID,0,VALID,23.3305,VALID,80,VALID,0,
2011-11-17, 00:02:05,VALID,999.799,VALID,0,VALID,93.6231,VALID,0,VALID,23.3092,VALID,80,VALID,0,
2011-11-17, 00:03:05,VALID,999.818,VALID,0,VALID,93.6536,VALID,0,VALID,23.3305,VALID,80,VALID,0.58125,
2011-11-17, 00:04:05,VALID,999.835,VALID,0,VALID,93.707,VALID,0,VALID,23.3287,VALID,80,VALID,0.807422,
2011-11-17, 00:05:05,VALID,999.832,VALID,0,VALID,93.7223,VALID,0,VALID,23.3677,VALID,80,VALID,0.908984,
2011-11-17, 00:06:05,VALID,999.844,VALID,0,VALID,93.7375,VALID,0,VALID,23.4067,VALID,80,VALID,0.880469,
2011-11-17, 00:07:05,VALID,999.818,VALID,0,VALID,93.7299,VALID,0,VALID,23.4866,VALID,115,VALID,0.953516,
2011-11-17, 00:08:05,VALID,999.801,VALID,0,VALID,93.7223,VALID,0,VALID,23.5043,VALID,124,VALID,0.624219,
2011-11-17, 00:09:05,VALID,999.82,VALID,0,VALID,93.6765,VALID,0,VALID,23.5061,VALID,124,VALID,0.713281,
2011-11-17, 00:10:05,VALID,999.794,VALID,0,VALID,93.5697,VALID,0,VALID,23.5256,VALID,124,VALID,0.591797,
2011-11-17, 00:11:05,VALID,999.8,VALID,0,VALID,93.4857,VALID,0,VALID,23.5646,VALID,124,VALID,0.505078,
2011-11-17, 00:12:05,VALID,999.75,VALID,0,VALID,93.4018,VALID,0,VALID,23.5433,VALID,170,VALID,0.857813,
2011-11-17, 00:13:05,VALID,999.785,VALID,0,VALID,93.2874,VALID,0,VALID,23.5646,VALID,164,VALID,0.358594,
2011-11-17, 00:14:05,VALID,999.749,VALID,0,VALID,93.15,VALID,0,VALID,23.5433,VALID,164,VALID,0.4375,
2011-11-17, 00:15:05,VALID,999.732,VALID,0,VALID,93.0508,VALID,0,VALID,23.5841,VALID,164,VALID,0.391016,
2011-11-17, 00:16:05,VALID,999.761,VALID,0,VALID,92.9745,VALID,0,VALID,23.5823,VALID,164,VALID,0.378906,
2011-11-17, 00:17:05,VALID,999.758,VALID,0,VALID,92.8754,VALID,0,VALID,23.5823,VALID,164,VALID,0,
2011-11-17, 00:18:05,VALID,999.72,VALID,0,VALID,92.7762,VALID,0,VALID,23.5841,VALID,164,VALID,0,
2011-11-17, 00:19:05,VALID,999.716,VALID,0,VALID,92.6846,VALID,0,VALID,23.5841,VALID,164,VALID,0,
2011-11-17, 00:20:05,VALID,999.706,VALID,0,VALID,92.6236,VALID,0,VALID,23.6036,VALID,164,VALID,0,
2011-11-17, 00:21:05,VALID,999.683,VALID,0,VALID,92.5702,VALID,0,VALID,23.6232,VALID,164,VALID,0,
2011-11-17, 00:22:05,VALID,999.657,VALID,0,VALID,92.5015,VALID,0,VALID,23.6427,VALID,201,VALID,0.210156,
2011-11-17, 00:23:05,VALID,999.644,VALID,0,VALID,92.3718,VALID,0,VALID,23.6409,VALID,201,VALID,0.283594,
2011-11-17, 00:24:05,VALID,999.617,VALID,0,VALID,92.2574,VALID,0,VALID,23.6817,VALID,201,VALID,0.280859,
2011-11-17, 00:25:05,VALID,999.585,VALID,0,VALID,92.204,VALID,0,VALID,23.6817,VALID,204,VALID,0.482812,
2011-11-17, 00:26:05,VALID,999.578,VALID,0,VALID,92.12,VALID,0,VALID,23.6427,VALID,254,VALID,0.577344,
2011-11-17, 00:27:05,VALID,999.557,VALID,0,VALID,92.12,VALID,0,VALID,23.5841,VALID,254,VALID,0.528906,
2011-11-17, 00:28:05,VALID,999.544,VALID,0,VALID,92.12,VALID,0,VALID,23.5256,VALID,254,VALID,0.542188,
2011-11-17, 00:29:05,VALID,999.503,VALID,0,VALID,92.2803,VALID,0,VALID,23.4866,VALID,254,VALID,0.365234,
2011-11-17, 00:30:05,VALID,999.5,VALID,0,VALID,92.3947,VALID,0,VALID,23.4671,VALID,254,VALID,0.445703,
2011-11-17, 00:31:05,VALID,999.517,VALID,0,VALID,92.4405,VALID,0,VALID,23.3872,VALID,254,VALID,0.554297,
2011-11-17, 00:32:05,VALID,999.522,VALID,0,VALID,92.5778,VALID,0,VALID,23.389,VALID,254,VALID,0.410547,
2011-11-17, 00:33:05,VALID,999.51,VALID,0,VALID,92.6923,VALID,0,VALID,23.3695,VALID,254,VALID,0.576953,
2011-11-17, 00:34:05,VALID,999.526,VALID,0,VALID,92.7457,VALID,0,VALID,23.35,VALID,254,VALID,0.464844,
2011-11-17, 00:35:05,VALID,999.494,VALID,0,VALID,92.6923,VALID,0,VALID,23.3287,VALID,254,VALID,0.418359,
2011-11-17, 00:36:05,VALID,999.457,VALID,0,VALID,92.677,VALID,0,VALID,23.3305,VALID,254,VALID,0.621484,
2011-11-17, 00:37:05,VALID,999.463,VALID,0,VALID,92.7685,VALID,0,VALID,23.35,VALID,254,VALID,0.742188,
2011-11-17, 00:38:05,VALID,999.45,VALID,0,VALID,92.8067,VALID,0,VALID,23.3695,VALID,254,VALID,0.811719,
2011-11-17, 00:39:05,VALID,999.4,VALID,0,VALID,92.7685,VALID,0,VALID,23.3482,VALID,254,VALID,0.775,
2011-11-17, 00:40:05,VALID,999.404,VALID,0,VALID,92.6617,VALID,0,VALID,23.3677,VALID,158,VALID,0.824609,
2011-11-17, 00:41:05,VALID,999.381,VALID,0,VALID,92.5549,VALID,0,VALID,23.389,VALID,69,VALID,0.834375,
2011-11-17, 00:42:05,VALID,999.391,VALID,0,VALID,92.5168,VALID,0,VALID,23.389,VALID,69,VALID,1.0168,
2011-11-17, 00:43:05,VALID,999.4,VALID,0,VALID,92.471,VALID,0,VALID,23.3872,VALID,69,VALID,1.03555,
2011-11-17, 00:44:05,VALID,999.4,VALID,0,VALID,92.4328,VALID,0,VALID,23.389,VALID,69,VALID,1.04336,
2011-11-17, 00:45:05,VALID,999.421,VALID,0,VALID,92.3413,VALID,0,VALID,23.3482,VALID,66,VALID,0.948828,
2011-11-17, 00:46:05,VALID,999.431,VALID,0,VALID,92.2574,VALID,0,VALID,23.3287,VALID,56,VALID,0.935156,
2011-11-17, 00:47:05,VALID,999.44,VALID,0,VALID,92.2803,VALID,0,VALID,23.2897,VALID,40,VALID,1.12461,
2011-11-17, 00:48:05,VALID,999.431,VALID,0,VALID,92.3718,VALID,0,VALID,23.2915,VALID,35,VALID,1.13984,
2011-11-17, 00:49:05,VALID,999.414,VALID,0,VALID,92.5244,VALID,0,VALID,23.2312,VALID,35,VALID,1.39727,
2011-11-17, 00:50:05,VALID,999.382,VALID,0,VALID,92.7075,VALID,0,VALID,23.2329,VALID,35,VALID,1.28281,
2011-11-17, 00:51:05,VALID,999.396,VALID,0,VALID,92.8601,VALID,0,VALID,23.1939,VALID,35,VALID,1.00898,
2011-11-17, 00:52:05,VALID,999.408,VALID,0,VALID,92.9364,VALID,0,VALID,23.1744,VALID,35,VALID,0.982031,
2011-11-17, 00:53:05,VALID,999.4,VALID,0,VALID,93.0432,VALID,0,VALID,23.1744,VALID,35,VALID,0.727344,
2011-11-17, 00:54:05,VALID,999.42,VALID,0,VALID,93.0814,VALID,0,VALID,23.1549,VALID,35,VALID,0.992969,
2011-11-17, 00:55:05,VALID,999.404,VALID,0,VALID,93.1577,VALID,0,VALID,23.1744,VALID,35,VALID,0.804688,
2011-11-17, 00:56:05,VALID,999.41,VALID,0,VALID,93.1577,VALID,0,VALID,23.1549,VALID,35,VALID,0.879687,
2011-11-17, 00:57:05,VALID,999.391,VALID,0,VALID,93.2263,VALID,0,VALID,23.1531,VALID,35,VALID,0.823438,
2011-11-17, 00:58:05,VALID,999.378,VALID,0,VALID,93.3103,VALID,0.104696,VALID,23.1531,VALID,35,VALID,0.571094,
2011-11-17, 00:59:05,VALID,999.372,VALID,0,VALID,93.3713,VALID,0,VALID,23.1531,VALID,35,VALID,0.588281,
2011-11-17, 01:00:05,VALID,999.323,VALID,0,VALID,93.4247,VALID,0,VALID,23.1744,VALID,35,VALID,0.353516,
2011-11-17, 01:01:05,VALID,999.329,VALID,0,VALID,93.44,VALID,0,VALID,23.1336,VALID,35,VALID,0.491406,
2011-11-17, 01:02:05,VALID,999.356,VALID,0,VALID,93.4628,VALID,0,VALID,23.1354,VALID,35,VALID,0.7625,
2011-11-17, 01:03:05,VALID,999.344,VALID,0,VALID,93.501,VALID,0.104696,VALID,23.0946,VALID,35,VALID,0.933203,
2011-11-17, 01:04:05,VALID,999.34,VALID,0,VALID,93.5086,VALID,0,VALID,23.0964,VALID,35,VALID,0.708594,
2011-11-17, 01:05:05,VALID,999.354,VALID,0,VALID,93.5544,VALID,0,VALID,23.0556,VALID,35,VALID,0.442578,
2011-11-17, 01:06:05,VALID,999.347,VALID,0,VALID,93.5468,VALID,0,VALID,23.0361,VALID,35,VALID,0.414844,
2011-11-17, 01:07:05,VALID,999.34,VALID,0,VALID,93.5468,VALID,0,VALID,22.9776,VALID,35,VALID,0.309375,
2011-11-17, 01:08:05,VALID,999.314,VALID,0,VALID,93.5773,VALID,0,VALID,22.9776,VALID,35,VALID,0.431641,
2011-11-17, 01:09:05,VALID,999.301,VALID,0,VALID,93.6154,VALID,0,VALID,22.9598,VALID,35,VALID,0.235156,
2011-11-17, 01:10:05,VALID,999.284,VALID,0,VALID,93.6536,VALID,0,VALID,22.9598,VALID,35,VALID,0.382813,
2011-11-17, 01:11:05,VALID,999.248,VALID,0,VALID,93.6841,VALID,0,VALID,22.9403,VALID,35,VALID,0.549219,
2011-11-17, 01:12:05,VALID,999.232,VALID,0,VALID,93.7146,VALID,0,VALID,22.9013,VALID,35,VALID,0.790625,
2011-11-17, 01:13:05,VALID,999.258,VALID,0,VALID,93.7223,VALID,0,VALID,22.903,VALID,18,VALID,0.920313,
2011-11-17, 01:14:05,VALID,999.253,VALID,0,VALID,93.7528,VALID,0,VALID,22.8818,VALID,18,VALID,0.865234,
2011-11-17, 01:15:05,VALID,999.246,VALID,0,VALID,93.7909,VALID,0,VALID,22.9208,VALID,18,VALID,0.643359,
2011-11-17, 01:16:05,VALID,999.246,VALID,0,VALID,93.8443,VALID,0,VALID,22.9208,VALID,18,VALID,0.569141,
2011-11-17, 01:17:05,VALID,999.226,VALID,0,VALID,93.8901,VALID,0,VALID,22.9208,VALID,18,VALID,0.532031,
2011-11-17, 01:18:05,VALID,999.265,VALID,0,VALID,93.913,VALID,0,VALID,22.9403,VALID,18,VALID,0.555078,
2011-11-17, 01:19:05,VALID,999.283,VALID,0,VALID,93.9359,VALID,0,VALID,22.9793,VALID,18,VALID,0.359375,
2011-11-17, 01:20:05,VALID,999.288,VALID,0,VALID,93.9664,VALID,0,VALID,22.9988,VALID,18,VALID,0.276172,
2011-11-17, 01:21:05,VALID,999.299,VALID,0,VALID,94.0045,VALID,0,VALID,23.0201,VALID,18,VALID,0.0886719,
2011-11-17, 01:22:05,VALID,999.276,VALID,0,VALID,94.0045,VALID,0,VALID,23.0396,VALID,18,VALID,0,
2011-11-17, 01:23:05,VALID,999.291,VALID,0,VALID,94.0198,VALID,0,VALID,23.0201,VALID,18,VALID,0,
2011-11-17, 01:24:05,VALID,999.324,VALID,0,VALID,94.0351,VALID,0,VALID,22.9988,VALID,18,VALID,0,
2011-11-17, 01:25:05,VALID,999.291,VALID,0,VALID,94.0427,VALID,0,VALID,23.0183,VALID,18,VALID,0,
2011-11-17, 01:26:05,VALID,999.263,VALID,0,VALID,94.058,VALID,0,VALID,23.0183,VALID,18,VALID,0,
2011-11-17, 01:27:05,VALID,999.287,VALID,0,VALID,94.058,VALID,0.104696,VALID,22.9971,VALID,18,VALID,0,
2011-11-17, 01:28:05,VALID,999.269,VALID,0,VALID,94.0808,VALID,0,VALID,23.0166,VALID,18,VALID,0,
2011-11-17, 01:29:05,VALID,999.247,VALID,0,VALID,94.0808,VALID,0.104696,VALID,23.0556,VALID,18,VALID,0,
2011-11-17, 01:30:05,VALID,999.234,VALID,0,VALID,94.0961,VALID,0,VALID,23.0556,VALID,18,VALID,0,
2011-11-17, 01:31:05,VALID,999.256,VALID,0,VALID,94.119,VALID,0,VALID,23.0751,VALID,18,VALID,0,
2011-11-17, 01:32:05,VALID,999.211,VALID,0,VALID,94.1343,VALID,0.104696,VALID,23.0556,VALID,18,VALID,0.512109,
2011-11-17, 01:33:05,VALID,999.2,VALID,0,VALID,94.1343,VALID,0.104696,VALID,23.0556,VALID,18,VALID,0.6125,
2011-11-17, 01:34:05,VALID,999.157,VALID,0,VALID,94.1495,VALID,0,VALID,23.0751,VALID,72,VALID,0.741797,
2011-11-17, 01:35:05,VALID,999.163,VALID,0,VALID,94.1419,VALID,0.104696,VALID,23.0964,VALID,73,VALID,0.760938,
2011-11-17, 01:36:05,VALID,999.143,VALID,0,VALID,94.1343,VALID,0.104696,VALID,23.0556,VALID,73,VALID,0.589063,
2011-11-17, 01:37:05,VALID,999.072,VALID,0,VALID,94.1419,VALID,0,VALID,23.0751,VALID,73,VALID,0.591797,
2011-11-17, 01:38:05,VALID,999.031,VALID,0,VALID,94.119,VALID,0.104696,VALID,23.0751,VALID,73,VALID,0.573047,
2011-11-17, 01:39:05,VALID,999.021,VALID,0,VALID,94.1114,VALID,0,VALID,23.0573,VALID,73,VALID,0.538672,
2011-11-17, 01:40:05,VALID,999.018,VALID,0,VALID,94.1114,VALID,0,VALID,23.0573,VALID,73,VALID,0.541406,
2011-11-17, 01:41:05,VALID,998.998,VALID,0,VALID,94.1037,VALID,0,VALID,23.0183,VALID,73,VALID,0.503125,
2011-11-17, 01:42:05,VALID,998.987,VALID,0,VALID,94.0808,VALID,0,VALID,22.9988,VALID,73,VALID,0.407422,
2011-11-17, 01:43:05,VALID,999.006,VALID,0,VALID,94.0427,VALID,0,VALID,22.9615,VALID,73,VALID,0.434766,
2011-11-17, 01:44:05,VALID,998.985,VALID,0,VALID,94.0122,VALID,0,VALID,22.9403,VALID,73,VALID,0.644141,
2011-11-17, 01:45:05,VALID,998.987,VALID,0,VALID,94.0122,VALID,0,VALID,22.9598,VALID,107,VALID,0.921094,
2011-11-17, 01:46:05,VALID,998.955,VALID,0,VALID,94.0274,VALID,0,VALID,22.9598,VALID,118,VALID,1.14766,
2011-11-17, 01:47:05,VALID,998.97,VALID,0,VALID,94.0045,VALID,0,VALID,22.9811,VALID,120,VALID,1.15117,
2011-11-17, 01:48:05,VALID,998.98,VALID,0,VALID,93.9969,VALID,0,VALID,22.9403,VALID,123,VALID,0.982422,
2011-11-17, 01:49:05,VALID,998.945,VALID,0,VALID,93.9664,VALID,0,VALID,22.9403,VALID,124,VALID,0.86875,
2011-11-17, 01:50:05,VALID,998.958,VALID,0,VALID,93.9588,VALID,0,VALID,22.9208,VALID,124,VALID,0.831641,
2011-11-17, 01:51:05,VALID,998.979,VALID,0,VALID,93.9359,VALID,0,VALID,22.9013,VALID,124,VALID,0.656641,
2011-11-17, 01:52:05,VALID,998.956,VALID,0,VALID,93.913,VALID,0,VALID,22.9013,VALID,124,VALID,0.351172,
2011-11-17, 01:53:05,VALID,998.961,VALID,0,VALID,93.9054,VALID,0,VALID,22.903,VALID,124,VALID,0.310156,
2011-11-17, 01:54:05,VALID,998.963,VALID,0,VALID,93.8977,VALID,0,VALID,22.88,VALID,124,VALID,0.00195313,
2011-11-17, 01:55:05,VALID,998.976,VALID,0,VALID,93.913,VALID,0,VALID,22.8818,VALID,124,VALID,0,
2011-11-17, 01:56:05,VALID,998.976,VALID,0,VALID,93.9206,VALID,0,VALID,22.9013,VALID,124,VALID,0,
2011-11-17, 01:57:05,VALID,998.951,VALID,0,VALID,93.9206,VALID,0,VALID,22.9403,VALID,124,VALID,0,
2011-11-17, 01:58:05,VALID,998.964,VALID,0,VALID,93.9435,VALID,0,VALID,22.9403,VALID,124,VALID,0.149219,
2011-11-17, 01:59:05,VALID,998.972,VALID,0,VALID,93.9511,VALID,0,VALID,22.9208,VALID,124,VALID,0.271875,
2011-11-17, 02:00:05,VALID,998.971,VALID,0,VALID,93.9511,VALID,0,VALID,22.9208,VALID,124,VALID,0.38125,
2011-11-17, 02:01:05,VALID,998.97,VALID,0,VALID,93.9435,VALID,0,VALID,22.9013,VALID,82,VALID,0.360547,
2011-11-17, 02:02:05,VALID,998.971,VALID,0,VALID,93.9435,VALID,0,VALID,22.9013,VALID,84,VALID,0.495313,
2011-11-17, 02:03:05,VALID,998.99,VALID,0,VALID,93.9054,VALID,0,VALID,22.9013,VALID,90,VALID,0.296094,
2011-11-17, 02:04:05,VALID,998.98,VALID,0,VALID,93.8977,VALID,0,VALID,22.9013,VALID,90,VALID,0.382031,
2011-11-17, 02:05:05,VALID,998.988,VALID,0,VALID,93.9054,VALID,0,VALID,22.9208,VALID,103,VALID,0.430469,
2011-11-17, 02:06:05,VALID,999.023,VALID,0,VALID,93.8748,VALID,0,VALID,22.919,VALID,103,VALID,0.443359,
2011-11-17, 02:07:05,VALID,998.988,VALID,0,VALID,93.913,VALID,0,VALID,22.9598,VALID,101,VALID,0.530859,
2011-11-17, 02:08:05,VALID,999.04,VALID,0,VALID,93.8596,VALID,0,VALID,22.9988,VALID,91,VALID,0.508984,
2011-11-17, 02:09:05,VALID,999.034,VALID,0,VALID,93.8443,VALID,0,VALID,22.9988,VALID,91,VALID,0.370703,
2011-11-17, 02:10:05,VALID,999.016,VALID,0,VALID,93.8214,VALID,0,VALID,22.9988,VALID,91,VALID,0.603906,
2011-11-17, 02:11:05,VALID,999.028,VALID,0,VALID,93.768,VALID,0,VALID,22.9988,VALID,89,VALID,0.658203,
2011-11-17, 02:12:05,VALID,998.994,VALID,0,VALID,93.707,VALID,0,VALID,22.9988,VALID,88,VALID,0.570703,
2011-11-17, 02:13:05,VALID,999.031,VALID,0,VALID,93.6536,VALID,0,VALID,22.9988,VALID,88,VALID,0.333594,
2011-11-17, 02:14:05,VALID,999.004,VALID,0,VALID,93.5697,VALID,0,VALID,22.9988,VALID,88,VALID,0.338672,
2011-11-17, 02:15:05,VALID,999.013,VALID,0,VALID,93.5086,VALID,0,VALID,22.9988,VALID,88,VALID,0,
2011-11-17, 02:16:05,VALID,999.007,VALID,0,VALID,93.4552,VALID,0,VALID,22.9793,VALID,88,VALID,0.130078,
2011-11-17, 02:17:05,VALID,998.996,VALID,0,VALID,93.3789,VALID,0,VALID,22.9598,VALID,88,VALID,0.0347656,
2011-11-17, 02:18:05,VALID,998.984,VALID,0,VALID,93.3179,VALID,0,VALID,22.9598,VALID,88,VALID,0,
2011-11-17, 02:19:05,VALID,998.977,VALID,0,VALID,93.295,VALID,0,VALID,22.9598,VALID,88,VALID,0.124219,
2011-11-17, 02:20:05,VALID,998.961,VALID,0,VALID,93.2797,VALID,0,VALID,22.942,VALID,88,VALID,0.0222656,
2011-11-17, 02:21:05,VALID,998.959,VALID,0,VALID,93.295,VALID,0,VALID,22.9208,VALID,88,VALID,0,
2011-11-17, 02:22:05,VALID,998.973,VALID,0,VALID,93.2721,VALID,0,VALID,22.9013,VALID,88,VALID,0,
2011-11-17, 02:23:05,VALID,998.945,VALID,0,VALID,93.3026,VALID,0,VALID,22.9013,VALID,88,VALID,0,
2011-11-17, 02:24:05,VALID,998.938,VALID,0,VALID,93.295,VALID,0,VALID,22.9013,VALID,88,VALID,0,
2011-11-17, 02:25:05,VALID,998.906,VALID,0,VALID,93.2874,VALID,0,VALID,22.9013,VALID,88,VALID,0,
2011-11-17, 02:26:05,VALID,998.912,VALID,0,VALID,93.3179,VALID,0,VALID,22.9013,VALID,88,VALID,0.394531,
2011-11-17, 02:27:05,VALID,998.883,VALID,0,VALID,93.3484,VALID,0,VALID,22.9013,VALID,88,VALID,0.286328,
2011-11-17, 02:28:05,VALID,998.865,VALID,0,VALID,93.3713,VALID,0,VALID,22.9013,VALID,89,VALID,0.568359,
2011-11-17, 02:29:05,VALID,998.806,VALID,0,VALID,93.3637,VALID,0,VALID,22.9208,VALID,101,VALID,0.683203,
2011-11-17, 02:30:05,VALID,998.804,VALID,0,VALID,93.3637,VALID,0,VALID,22.9403,VALID,103,VALID,0.696484,
2011-11-17, 02:31:05,VALID,998.796,VALID,0,VALID,93.3331,VALID,0,VALID,22.9403,VALID,107,VALID,0.600391,
2011-11-17, 02:32:05,VALID,998.808,VALID,0,VALID,93.3179,VALID,0,VALID,22.9793,VALID,107,VALID,0.550391,
2011-11-17, 02:33:05,VALID,998.825,VALID,0,VALID,93.2721,VALID,0,VALID,22.9988,VALID,107,VALID,0.223828,
2011-11-17, 02:34:05,VALID,998.808,VALID,0,VALID,93.2187,VALID,0,VALID,23.0183,VALID,107,VALID,0,
2011-11-17, 02:35:05,VALID,998.787,VALID,0,VALID,93.1882,VALID,0,VALID,23.0378,VALID,107,VALID,0,
2011-11-17, 02:36:05,VALID,998.802,VALID,0,VALID,93.1271,VALID,0,VALID,23.0183,VALID,107,VALID,0,
2011-11-17, 02:37:05,VALID,998.773,VALID,0,VALID,93.0737,VALID,0,VALID,23.0183,VALID,107,VALID,0,
2011-11-17, 02:38:05,VALID,998.771,VALID,0,VALID,93.0356,VALID,0,VALID,23.0183,VALID,107,VALID,0.142188,
2011-11-17, 02:39:04,VALID,998.746,VALID,0,VALID,93.028,VALID,0,VALID,23.0183,VALID,107,VALID,0.414063,
2011-11-17, 02:40:04,VALID,998.761,VALID,0,VALID,93.0127,VALID,0,VALID,23.0786,VALID,107,VALID,0.574609,
2011-11-17, 02:41:04,VALID,998.755,VALID,0,VALID,92.9745,VALID,0,VALID,23.0769,VALID,107,VALID,0.194531,
2011-11-17, 02:42:04,VALID,998.768,VALID,0,VALID,92.9135,VALID,0,VALID,23.0964,VALID,107,VALID,0.145313,
2011-11-17, 02:43:04,VALID,998.78,VALID,0,VALID,92.8525,VALID,0,VALID,23.1159,VALID,107,VALID,0.530078,
2011-11-17, 02:44:04,VALID,998.789,VALID,0,VALID,92.7685,VALID,0,VALID,23.1354,VALID,107,VALID,0.300781,
2011-11-17, 02:45:04,VALID,998.78,VALID,0,VALID,92.6312,VALID,0,VALID,23.1549,VALID,107,VALID,0.293359,
2011-11-17, 02:46:04,VALID,998.803,VALID,0,VALID,92.5397,VALID,0,VALID,23.1744,VALID,107,VALID,0.274219,
2011-11-17, 02:47:04,VALID,998.814,VALID,0,VALID,92.4328,VALID,0,VALID,23.1744,VALID,107,VALID,0.162109,
2011-11-17, 02:48:04,VALID,998.808,VALID,0,VALID,92.3566,VALID,0,VALID,23.1549,VALID,83,VALID,0.433203,
2011-11-17, 02:49:04,VALID,998.797,VALID,0,VALID,92.2726,VALID,0,VALID,23.1549,VALID,83,VALID,0.36875,
2011-11-17, 02:50:04,VALID,998.801,VALID,0,VALID,92.2192,VALID,0,VALID,23.1354,VALID,83,VALID,0.630469,
2011-11-17, 02:51:04,VALID,998.797,VALID,0,VALID,92.2803,VALID,0,VALID,23.1336,VALID,83,VALID,0.609766,
2011-11-17, 02:52:04,VALID,998.799,VALID,0,VALID,92.265,VALID,0,VALID,23.1549,VALID,83,VALID,0.738672,
2011-11-17, 02:53:04,VALID,998.789,VALID,0,VALID,92.2116,VALID,0,VALID,23.1549,VALID,83,VALID,0.760547,
2011-11-17, 02:54:04,VALID,998.773,VALID,0,VALID,92.1811,VALID,0.104696,VALID,23.1336,VALID,83,VALID,0.542969,
2011-11-17, 02:55:04,VALID,998.778,VALID,0,VALID,92.1887,VALID,0,VALID,23.1159,VALID,83,VALID,0.500391,
2011-11-17, 02:56:04,VALID,998.766,VALID,0,VALID,92.204,VALID,0,VALID,23.0751,VALID,83,VALID,0.508594,
2011-11-17, 02:57:04,VALID,998.766,VALID,0,VALID,92.2268,VALID,0,VALID,23.0166,VALID,83,VALID,0.489844,
2011-11-17, 02:58:04,VALID,998.796,VALID,0,VALID,92.4252,VALID,0,VALID,22.9988,VALID,83,VALID,0.412109,
2011-11-17, 02:59:04,VALID,998.792,VALID,0,VALID,92.4939,VALID,0,VALID,22.9403,VALID,83,VALID,0.175391,
2011-11-17, 03:00:04,VALID,998.824,VALID,0,VALID,92.4939,VALID,0,VALID,22.88,VALID,83,VALID,0,
2011-11-17, 03:01:04,VALID,998.815,VALID,0,VALID,92.5244,VALID,0,VALID,22.8623,VALID,83,VALID,0,
2011-11-17, 03:02:04,VALID,998.797,VALID,0,VALID,92.5549,VALID,0,VALID,22.8427,VALID,83,VALID,0,
2011-11-17, 03:03:04,VALID,998.743,VALID,0,VALID,92.6312,VALID,0,VALID,22.8232,VALID,83,VALID,0.260156,
2011-11-17, 03:04:04,VALID,998.715,VALID,0,VALID,92.7914,VALID,0,VALID,22.8232,VALID,83,VALID,0.465625,
2011-11-17, 03:05:04,VALID,998.688,VALID,0,VALID,92.9898,VALID,0,VALID,22.8818,VALID,111,VALID,0.683984,
2011-11-17, 03:06:04,VALID,998.703,VALID,0,VALID,93.1653,VALID,0,VALID,22.919,VALID,149,VALID,0.75625,
2011-11-17, 03:07:04,VALID,998.712,VALID,0,VALID,93.2645,VALID,0,VALID,22.9988,VALID,149,VALID,0.483203,
2011-11-17, 03:08:04,VALID,998.727,VALID,0,VALID,93.3179,VALID,0,VALID,23.0573,VALID,149,VALID,0.548047,
2011-11-17, 03:09:04,VALID,998.77,VALID,0,VALID,93.2874,VALID,0,VALID,23.0769,VALID,149,VALID,0.294531,
2011-11-17, 03:10:04,VALID,998.774,VALID,0,VALID,93.2263,VALID,0,VALID,23.0769,VALID,149,VALID,0.182031,
2011-11-17, 03:11:04,VALID,998.796,VALID,0,VALID,93.1577,VALID,0,VALID,23.0964,VALID,149,VALID,0,
2011-11-17, 03:12:04,VALID,998.78,VALID,0,VALID,93.1043,VALID,0,VALID,23.0751,VALID,149,VALID,0,
2011-11-17, 03:13:04,VALID,998.776,VALID,0,VALID,93.0508,VALID,0,VALID,23.0556,VALID,149,VALID,0,
2011-11-17, 03:14:04,VALID,998.744,VALID,0,VALID,93.0203,VALID,0,VALID,23.0769,VALID,149,VALID,0,
2011-11-17, 03:15:04,VALID,998.741,VALID,0,VALID,93.0203,VALID,0,VALID,23.0751,VALID,149,VALID,0.00117188,
2011-11-17, 03:16:04,VALID,998.771,VALID,0,VALID,93.0432,VALID,0,VALID,23.0769,VALID,149,VALID,0,
2011-11-17, 03:17:04,VALID,998.78,VALID,0,VALID,93.0203,VALID,0,VALID,23.0361,VALID,149,VALID,0.550781,
2011-11-17, 03:18:04,VALID,998.814,VALID,0,VALID,92.9517,VALID,0,VALID,23.0556,VALID,149,VALID,0.655859,
2011-11-17, 03:19:04,VALID,998.853,VALID,0,VALID,92.822,VALID,0,VALID,23.0769,VALID,149,VALID,0.487109,
2011-11-17, 03:20:04,VALID,998.813,VALID,0,VALID,92.6694,VALID,0,VALID,23.0751,VALID,149,VALID,0.634766,
2011-11-17, 03:21:04,VALID,998.834,VALID,0,VALID,92.5244,VALID,0,VALID,23.0964,VALID,148,VALID,0.891016,
2011-11-17, 03:22:04,VALID,998.795,VALID,0,VALID,92.3413,VALID,0,VALID,23.0946,VALID,145,VALID,0.874219,
2011-11-17, 03:23:04,VALID,998.802,VALID,0,VALID,92.1658,VALID,0,VALID,23.1141,VALID,142,VALID,0.972266,
2011-11-17, 03:24:04,VALID,998.793,VALID,0,VALID,92.0209,VALID,0,VALID,23.1141,VALID,142,VALID,0.885547,
2011-11-17, 03:25:04,VALID,998.814,VALID,0,VALID,91.8988,VALID,0,VALID,23.1159,VALID,142,VALID,0.536328,
2011-11-17, 03:26:04,VALID,998.818,VALID,0,VALID,91.853,VALID,0,VALID,23.0751,VALID,128,VALID,0.650781,
2011-11-17, 03:27:04,VALID,998.827,VALID,0,VALID,92.0056,VALID,0,VALID,23.0964,VALID,99,VALID,0.516797,
2011-11-17, 03:28:04,VALID,998.845,VALID,0,VALID,92.1506,VALID,0,VALID,23.0751,VALID,97,VALID,0.8125,
2011-11-17, 03:29:04,VALID,998.856,VALID,0,VALID,92.2803,VALID,0,VALID,23.1159,VALID,96,VALID,0.900391,
2011-11-17, 03:30:04,VALID,998.839,VALID,0,VALID,92.2879,VALID,0,VALID,23.1159,VALID,96,VALID,0.820703,
2011-11-17, 03:31:04,VALID,998.848,VALID,0,VALID,92.3031,VALID,0,VALID,23.0946,VALID,96,VALID,0.698438,
2011-11-17, 03:32:04,VALID,998.819,VALID,0,VALID,92.3337,VALID,0,VALID,23.1159,VALID,96,VALID,0.686328,
2011-11-17, 03:33:04,VALID,998.832,VALID,0,VALID,92.3566,VALID,0,VALID,23.0769,VALID,96,VALID,0.6375,
2011-11-17, 03:34:04,VALID,998.802,VALID,0,VALID,92.4023,VALID,0,VALID,23.0361,VALID,96,VALID,0.603906,
2011-11-17, 03:35:04,VALID,998.783,VALID,0,VALID,92.471,VALID,0,VALID,23.0378,VALID,96,VALID,0.689453,
2011-11-17, 03:36:04,VALID,998.784,VALID,0,VALID,92.5854,VALID,0,VALID,22.9988,VALID,66,VALID,0.676953,
2011-11-17, 03:37:04,VALID,998.731,VALID,0,VALID,92.6694,VALID,0,VALID,22.9598,VALID,64,VALID,0.562891,
2011-11-17, 03:38:04,VALID,998.746,VALID,0,VALID,92.7685,VALID,0,VALID,22.919,VALID,64,VALID,0.518359,
2011-11-17, 03:39:04,VALID,998.772,VALID,0,VALID,92.8677,VALID,0,VALID,22.9013,VALID,64,VALID,0.270312,
2011-11-17, 03:40:04,VALID,998.792,VALID,0,VALID,92.9288,VALID,0,VALID,22.8605,VALID,64,VALID,0.0597656,
2011-11-17, 03:41:04,VALID,998.8,VALID,0,VALID,93.0127,VALID,0,VALID,22.8232,VALID,64,VALID,0.0832031,
2011-11-17, 03:42:04,VALID,998.794,VALID,0,VALID,93.0737,VALID,0,VALID,22.7825,VALID,64,VALID,0.00976563,
2011-11-17, 03:43:04,VALID,998.82,VALID,0,VALID,93.1805,VALID,0.104696,VALID,22.7825,VALID,64,VALID,0.00429688,
2011-11-17, 03:44:04,VALID,998.833,VALID,0,VALID,93.2645,VALID,0,VALID,22.7842,VALID,64,VALID,0.1125,
2011-11-17, 03:45:04,VALID,998.811,VALID,0,VALID,93.3713,VALID,0,VALID,22.7842,VALID,64,VALID,0.0804688,
2011-11-17, 03:46:04,VALID,998.834,VALID,0,VALID,93.44,VALID,0,VALID,22.7842,VALID,64,VALID,0.110547,
2011-11-17, 03:47:04,VALID,998.812,VALID,0,VALID,93.501,VALID,0,VALID,22.763,VALID,64,VALID,0,